Weather History for Palma De Mallorca / Son San Juan, Spain

Change the Weather History Date:

Sunday, February 2, 2014

  Actual Average Record
Temperature  
Mean Temperature 48 °F -  
Max Temperature 55 °F 57 °F - ()
Min Temperature 42 °F 39 °F - ()
Degree Days  
Heating Degree Days 16    
Moisture  
Dew Point 37 °F    
Average Humidity 57    
Maximum Humidity 81    
Minimum Humidity 35    
Precipitation  
Precipitation 0.00 in 0.05 in - ()
Sea Level Pressure  
Sea Level Pressure 29.98 in    
Wind  
Wind Speed 10 mph ()    
Max Wind Speed 22 mph    
Max Gust Speed 26 mph    
Visibility 7.5 miles    
Events      
T = Trace of Precipitation, MM = Missing Value Source: Averaged Metar Reports

Daily Weather History Graph

Daily Weather History Graph

Search for Another Location

Airport:

Trip Planner

Search our weather history database for the weather conditions in past years. The results will help you decide how hot, cold, wet, or windy it might be!

Date:

Astronomy

Feb. 02, 2014 Rise Set
Actual Time 7:55 AM CET 6:10 PM CET
Civil Twilight 7:27 AM CET 6:38 PM CET
Nautical Twilight 6:55 AM CET 7:10 PM CET
Astronomical Twilight 6:23 AM CET 7:42 PM CET
Moon 9:14 AM CET (2/2) 9:35 PM CET (2/2)
Length of Visible Light 11h 10m
Length of Day
10h 14m
Waxing Crescent, 9% of the Moon is Illuminated
Feb 2
Waxing Crescent
Feb 6
First Quarter
Feb 15
Full
Feb 22
Last Quarter
Mar 1
New

Hourly Weather History & Observations

Time (CET) Temp. Windchill Dew Point Humidity Pressure Visibility Wind Dir Wind Speed Gust Speed Precip Events Conditions
12:00 AM 54 °F - 38 °F 43% 29.83 in - NNW 12.7 mph - -  
12:00 AM 53.6 °F - 41.0 °F 62% 29.83 in 6.2 mi NNW 12.7 mph - N/A   Scattered Clouds
12:30 AM 53.6 °F - 37.4 °F 54% 29.83 in 6.2 mi NW 15.0 mph 26.5 mph N/A   Scattered Clouds
1:00 AM 53 °F - 33 °F 35% 29.87 in 9 mi NW 10.4 mph - -   Mostly Cloudy
1:00 AM 53.6 °F - 35.6 °F 51% 29.86 in 6.2 mi NW 17.3 mph - N/A   Scattered Clouds
1:30 AM 51.8 °F - 32.0 °F 47% 29.86 in 6.2 mi NW 13.8 mph - N/A   Partly Cloudy
2:00 AM 51 °F - 34 °F 40% 29.87 in - NW 11.5 mph - -  
2:00 AM 51.8 °F - 33.8 °F 50% 29.86 in 6.2 mi NW 15.0 mph - N/A   Partly Cloudy
2:30 AM 50.0 °F - 35.6 °F 58% 29.86 in 6.2 mi NNW 10.4 mph - N/A   Partly Cloudy
3:00 AM 50 °F - 34 °F 41% 29.88 in - NW 13.8 mph - -  
3:00 AM 50.0 °F - 35.6 °F 58% 29.86 in 6.2 mi NNW 16.1 mph - N/A   Partly Cloudy
3:30 AM 50.0 °F - 35.6 °F 58% 29.89 in 6.2 mi NW 15.0 mph - N/A   Partly Cloudy
4:00 AM 49 °F - 34 °F 45% 29.91 in 9 mi NW 11.5 mph - -   Partly Cloudy
4:00 AM 50.0 °F - 35.6 °F 58% 29.89 in 6.2 mi NW 11.5 mph - N/A   Partly Cloudy
4:30 AM 48.2 °F - 35.6 °F 62% 29.89 in 6.2 mi NW 9.2 mph 20.7 mph N/A   Partly Cloudy
5:00 AM 49 °F - 35 °F 47% 29.91 in - NW 13.8 mph - -  
5:00 AM 48.2 °F - 35.6 °F 62% 29.89 in 6.2 mi NW 16.1 mph - N/A   Scattered Clouds
5:30 AM 48.2 °F - 37.4 °F 66% 29.89 in 6.2 mi NW 12.7 mph - N/A   Scattered Clouds
6:00 AM 49 °F - 35 °F 48% 29.92 in - NW 9.2 mph - -  
6:00 AM 48.2 °F - 35.6 °F 62% 29.89 in 6.2 mi NW 9.2 mph - N/A   Scattered Clouds
6:30 AM 48.2 °F - 37.4 °F 66% 29.92 in 6.2 mi Variable 2.3 mph - N/A   Partly Cloudy
7:00 AM 46 °F - 37 °F 61% 29.94 in 9 mi NNW 2.3 mph - -   Partly Cloudy
7:00 AM 46.4 °F 45.2 °F 37.4 °F 71% 29.92 in 6.2 mi SSW 3.5 mph - N/A   Partly Cloudy
7:30 AM 48.2 °F - 37.4 °F 66% 29.95 in 6.2 mi Variable 2.3 mph - N/A   Partly Cloudy
8:00 AM 45 °F - 35 °F 59% 29.97 in - North 2.3 mph - -  
8:00 AM 44.6 °F - 35.6 °F 71% 29.95 in 6.2 mi Calm Calm - N/A   Partly Cloudy
8:30 AM 42.8 °F - 35.6 °F 76% 29.98 in 6.2 mi Calm Calm - N/A   Partly Cloudy
9:00 AM 46 °F - 38 °F 66% 30.01 in - ENE 9.2 mph - -  
9:00 AM 46.4 °F 44.3 °F 39.2 °F 76% 30.01 in 6.2 mi ENE 4.6 mph - N/A   Partly Cloudy
9:30 AM 46.4 °F 45.2 °F 41.0 °F 81% 30.01 in 6.2 mi ENE 3.5 mph - N/A   Partly Cloudy
10:00 AM 50 °F - 40 °F 59% 30.03 in 19 mi ENE 4.6 mph - -   Scattered Clouds
10:00 AM 48.2 °F - 41.0 °F 76% 30.01 in 6.2 mi NE 4.6 mph - N/A   Partly Cloudy
10:30 AM 51.8 °F - 41.0 °F 67% 30.04 in 6.2 mi Variable 1.2 mph - N/A   Partly Cloudy
11:00 AM 54 °F - 39 °F 46% 30.04 in - SSE 2.3 mph - -  
11:00 AM 51.8 °F - 41.0 °F 67% 30.04 in 6.2 mi Calm Calm - N/A   Partly Cloudy
11:30 AM 53.6 °F - 39.2 °F 58% 30.04 in 6.2 mi NW 6.9 mph 18.4 mph N/A   Partly Cloudy
12:00 PM 54 °F - 37 °F 41% 30.05 in - NW 12.7 mph - -  
12:00 PM 53.6 °F - 37.4 °F 54% 30.04 in 6.2 mi NW 15.0 mph - N/A   Partly Cloudy
12:30 PM 53.6 °F - 37.4 °F 54% 30.04 in 6.2 mi WNW 13.8 mph - N/A   Partly Cloudy
1:00 PM 54 °F - 37 °F 41% 30.04 in 19 mi WNW 15.0 mph - -   Scattered Clouds
1:00 PM 53.6 °F - 37.4 °F 54% 30.04 in 6.2 mi NW 21.9 mph - N/A   Partly Cloudy
1:30 PM 53.6 °F - 39.2 °F 58% 30.04 in 6.2 mi NW 21.9 mph - N/A   Partly Cloudy
2:00 PM 55 °F - 37 °F 39% 30.04 in - NW 10.4 mph - -  
2:00 PM 53.6 °F - 37.4 °F 54% 30.04 in 6.2 mi NNW 18.4 mph - N/A   Partly Cloudy
2:30 PM 53.6 °F - 37.4 °F 54% 30.01 in 6.2 mi NW 15.0 mph - N/A   Partly Cloudy
3:00 PM 55 °F - 37 °F 40% 30.03 in - NW 11.5 mph - -  
3:00 PM 53.6 °F - 37.4 °F 54% 30.01 in 6.2 mi NW 17.3 mph - N/A   Partly Cloudy
3:30 PM 53.6 °F - 37.4 °F 54% 30.01 in 6.2 mi NW 16.1 mph - N/A   Partly Cloudy
4:00 PM 55 °F - 36 °F 36% 30.02 in 19 mi NW 15.0 mph - -   Scattered Clouds
4:00 PM 53.6 °F - 37.4 °F 54% 30.01 in 6.2 mi NW 20.7 mph - N/A   Partly Cloudy
4:30 PM 53.6 °F - 37.4 °F 54% 30.01 in 6.2 mi NW 19.6 mph - N/A   Partly Cloudy
5:00 PM 54 °F - 37 °F 41% 30.02 in - NW 15.0 mph - -  
5:00 PM 53.6 °F - 37.4 °F 54% 30.01 in 6.2 mi WNW 13.8 mph - N/A   Partly Cloudy
5:30 PM 51.8 °F - 37.4 °F 58% 30.01 in 6.2 mi WNW 11.5 mph - N/A   Partly Cloudy
6:00 PM 52 °F - 36 °F 43% 30.04 in - WSW 4.6 mph - -  
6:00 PM 51.8 °F - 37.4 °F 58% 30.04 in 6.2 mi WNW 6.9 mph - N/A   Partly Cloudy
6:30 PM 50.0 °F - 37.4 °F 62% 30.04 in 6.2 mi NW 5.8 mph - N/A   Partly Cloudy
7:00 PM 50 °F - 36 °F 47% 30.04 in 19 mi WNW 3.5 mph - -   Scattered Clouds
7:00 PM 50.0 °F - 37.4 °F 62% 30.04 in 6.2 mi NW 1.2 mph - N/A   Partly Cloudy
7:30 PM 50.0 °F - 37.4 °F 62% 30.04 in 6.2 mi Calm Calm - N/A   Partly Cloudy
8:00 PM 50 °F - 36 °F 48% 30.04 in - WNW 3.5 mph - -  
8:00 PM 50.0 °F - 37.4 °F 62% 30.04 in 6.2 mi Calm Calm - N/A   Partly Cloudy
8:30 PM 50.0 °F - 37.4 °F 62% 30.04 in 6.2 mi South 3.5 mph - N/A   Partly Cloudy
9:00 PM 49 °F - 37 °F 53% 30.05 in - West 8.1 mph - -  
9:00 PM 48.2 °F - 37.4 °F 66% 30.04 in 6.2 mi West 9.2 mph - N/A   Partly Cloudy
9:30 PM 48.2 °F - 37.4 °F 66% 30.04 in 6.2 mi West 9.2 mph - N/A   Partly Cloudy
10:00 PM 48 °F - 37 °F 54% 30.04 in 19 mi West 8.1 mph - -   Scattered Clouds
10:00 PM 48.2 °F - 37.4 °F 66% 30.04 in 6.2 mi WSW 8.1 mph - N/A   Partly Cloudy
10:30 PM 48.2 °F - 37.4 °F 66% 30.04 in 6.2 mi WSW 6.9 mph - N/A   Partly Cloudy
11:00 PM 48 °F - 37 °F 56% 30.04 in - West 8.1 mph - -  
11:00 PM 48.2 °F - 37.4 °F 66% 30.04 in 6.2 mi West 9.2 mph - N/A   Partly Cloudy
11:30 PM 46.4 °F 45.2 °F 37.4 °F 71% 30.01 in 6.2 mi SW 3.5 mph - N/A   Partly Cloudy